map of XNA home
Great Circle Mapper logo
XNA - Airport
Location
City:  Fayetteville, Arkansas, United States
Near (Alt.):Springdale
Name:Northwest Arkansas Regional
ICAO / IATA:KXNA / XNA
FAA:XNA

Details
Type:Airport (Part 139 Class I)
Use:Public/Civil
Latitude:3616'54"N (36.281579)
Longitude:9418'28"W (-94.307765)
Datum:WGS 1984
Elevation:1288 ft (393 m)
Runways:2
Longest:8800 × 150 ft (2682 × 45.5 m), paved

Time
Time Zone:UTC-6 (DST-5)
Local Time:

Weather
METAR:KXNA 250553Z AUTO 20004KT 8SM CLR 15/14 A3008 RMK AO2 SLP175 T01500139 10194 20150 402330089 58002
TAF:KXNA 250520Z 2506/2606 20003KT P6SM SKC
FM251500 23005KT P6SM SKC

Related Locations
Nearby:
Farthest:MGV: 10776 mi / 17342 km
Margaret River, WA, AU

Find:

   beyond  
but within

Other Information
Maps:
Delays:
NOTAMs:
Links:
Sources:

  
flag of United States
flag of Arkansas
  

Airport Diagram

Airport diagram for XNA

Airport diagram PDF

Sectional Chart

Flight Planning
at skyvector.com

Satellite Image

Google Maps Satellite View

 

Copyright © 2004-2014 Karl L. Swartz. All rights reserved.
The Great Circle Mapper name and logo are trademarks of the Great Circle Mapper.
All other trademarks mentioned herein belong to their respective owners.
Please see credits for attibutions and further copyright information.

  Follow gcmap on Facebook Follow gcmap on Twitter

hCard Microformat

Geo Microformat